Location: *
(48.3667°N, 12.3667°E)
Time: 13:59:51
(UTC+00:00)

Daily predictions for brighter satellites

Satellite Brightness Start Highest point End
(mag) Time Altitude Azimuth Time Altitude Azimuth Time Altitude Azimuth
ATLAS 2AS CENTAUR R/B 3.9 15:41:21 10° WSW 15:48:57 43° NNW 15:56:27 10° NE
NOAA 6 4.1 15:45:29 10° SSE 15:50:37 88° WSW 15:55:46 10° NNW
ISS -0.4 15:50:10 10° W 15:52:06 15° SW 15:54:03 10° S
Cosmos 1666 3.3 15:50:44 10° N 15:54:11 34° ENE 15:57:36 10° SE
Meteor 1-27 Rocket 3.9 15:49:02 10° S 15:54:43 61° E 16:00:32 10° NNE
Meteor 1-11 Rocket 3.9 15:48:42 10° N 15:54:44 84° ENE 16:00:40 10° SSE
NOSS 0 Rocket 4.0 15:48:33 10° SSW 15:54:46 83° ESE 16:01:04 10° NNE
Cosmos 1689 Rocket 2.1 15:53:45 10° NNE 15:56:48 88° WNW 15:59:48 10° SSW
COSMOS 2428 3.4 15:52:04 10° SW 15:57:35 52° NW 16:03:12 10° NNE
Cosmos 1867 3.9 15:57:57 10° NNW 16:03:13 44° NE 16:08:25 10° ESE
CZ-4B R/B 3.7 16:02:06 10° S 16:07:26 65° WSW 16:12:52 10° NNW
STARLINK-60 3.1 16:04:25 10° WSW 16:07:48 88° NNW 16:10:52 12° ENE
YAOGAN 6 4.1 16:05:59 10° ESE 16:08:12 16° ENE 16:10:27 10° NNE
IRS-1C Rocket 4.1 16:03:37 10° SSE 16:08:49 63° ENE 16:14:02 10° N
AQUARIUS 4.3 16:06:44 10° SE 16:11:05 51° ENE 16:15:28 10° N
PSLV R/B 4.1 16:07:35 10° NNE 16:11:41 56° E 16:15:42 10° S
USA 215 3.4 16:07:24 10° ENE 16:13:56 67° SE 16:20:26 10° SW
Cosmos 2278 Rocket 3.5 16:08:50 10° NW 16:14:12 45° WSW 16:19:33 10° S
Cosmos 2360 Rocket 4.2 16:10:51 10° W 16:14:53 19° NW 16:18:56 10° N
STARLINK-52 3.3 16:11:33 10° SW 16:15:02 68° SSE 16:17:57 14° ENE
Cosmos 1782 Rocket 4.0 16:12:34 10° N 16:16:38 37° ENE 16:20:40 10° SE
Cosmos 1263 4.5 16:14:11 10° SSE 16:17:02 44° E 16:20:07 10° NNE
COBE Rocket 4.1 16:13:14 10° NNE 16:17:45 47° E 16:22:19 10° S
STARLINK-67 3.4 16:17:00 10° WNW 16:19:34 33° N 16:21:13 17° ENE
Helios 1A Rocket 4.1 16:15:57 10° S 16:19:53 46° W 16:23:50 10° NNW
STARLINK-29 3.2 16:19:37 10° WSW 16:23:09 83° SSE 16:25:47 17° ENE
Cosmos 614 Rocket 4.4 16:19:09 10° S 16:23:53 41° ESE 16:28:31 11° NE
Cosmos 2369 Rocket 3.0 16:19:12 10° NNW 16:24:06 29° NE 16:28:59 10° ESE
Cosmos 1862 Rocket 4.0 16:20:59 10° SSW 16:25:19 65° WNW 16:29:44 10° N
RESURS DK-1 4.3 16:23:08 10° WSW 16:26:32 24° NW 16:29:56 10° N
STARLINK-46 3.7 16:26:22 10° WNW 16:28:46 28° N 16:29:56 20° NE
Cosmos 1703 Rocket 3.7 16:24:47 10° S 16:29:08 53° E 16:33:30 10° NNE
SMAP 3.0 16:25:26 10° SSE 16:30:05 85° ENE 16:34:47 10° NNW
Okean 2 Rocket 4.0 16:27:19 10° NNE 16:31:07 26° ENE 16:34:54 10° SE
Cosmos 1743 3.1 16:28:08 10° N 16:31:48 39° ENE 16:35:28 10° SE
CORIOLIS 4.1 16:26:24 10° SSE 16:31:50 76° ENE 16:37:18 10° NNW
SL-16 R/B 2.4 16:27:08 10° S 16:32:38 54° ESE 16:37:48 12° NE
Cosmos 1536 3.6 16:30:00 10° NNW 16:33:56 56° W 16:37:50 10° S
Feng Yun 1-1 Rocket 4.2 16:28:36 10° SSE 16:33:58 89° SW 16:39:27 10° NNW
Sich 1 Rocket 3.8 16:32:14 10° N 16:36:29 45° ENE 16:40:41 10° SSE
Cosmos 1174 4.0 16:31:59 10° SSW 16:36:51 64° ESE 16:39:39 19° NE
CZ-4B R/B 4.1 16:35:25 10° NNW 16:37:54 18° WNW 16:40:19 10° WSW
Cosmos 2237 Rocket 2.7 16:34:39 10° SW 16:40:16 59° WNW 16:45:54 10° NNE
Lacrosse 5 rocket 2.5 16:38:46 10° W 16:42:34 31° NNW 16:44:56 18° NE
FengYun 1-2 T 4.4 16:37:33 10° SE 16:42:46 48° ENE 16:48:05 10° N
Cosmos 2344 4.5 16:35:08 10° NW 16:43:42 48° NNE 16:55:15 10° ESE
Cosmos 1627 Rocket 4.4 16:38:45 10° S 16:44:47 66° E 16:50:53 10° NNE
Cosmos 2195 Rocket 4.5 16:39:04 10° S 16:45:16 73° E 16:51:35 10° NNE
Cosmos 1812 4.4 16:41:47 10° SW 16:45:18 33° WNW 16:48:51 10° N
Cosmos 1943 Rocket 2.4 16:41:27 10° NNW 16:46:54 46° NE 16:52:14 10° SE
Cosmos 2219 Rocket 3.9 16:42:40 10° W 16:47:19 26° NW 16:52:02 10° N
SL-4 R/B 2.1 16:43:51 10° WNW 16:47:34 54° N 16:49:31 27° ENE
NOSS 3-1 (C) 4.2 16:41:10 10° NW 16:48:05 48° NE 16:55:30 12° ESE
Okean O Rocket 4.1 16:44:54 10° SSW 16:48:28 24° W 16:52:02 10° NW
STARLINK-43 4.0 16:45:02 10° SSW 16:48:31 40° SE 16:50:01 26° E
USA 267 3.4 16:42:31 10° SE 16:49:05 81° SW 16:55:40 10° NW
Cosmos 2333 Rocket 4.0 16:44:42 10° W 16:49:27 26° NW 16:54:15 10° NNE
Cosmos 1140 Rocket 3.7 16:45:19 10° S 16:50:12 46° ESE 16:53:37 19° NE
Abrixas rocket 3.8 16:48:27 10° SSW 16:50:43 20° SSE 16:51:18 19° SE
Okean 1 3.3 16:50:01 10° S 16:53:53 54° E 16:56:45 17° NNE
Envisat 2.9 16:50:10 10° SSE 16:55:14 78° ENE 17:00:20 10° NNW
Cosmos 1092 Rocket 4.1 16:51:55 10° SSW 16:58:13 79° W 17:04:29 10° N
Aureole 1 Rocket 3.2 16:55:17 10° SW 16:58:14 47° WNW 17:00:55 15° N
Okean 1-7 3.0 16:54:29 10° S 16:58:50 89° E 17:03:15 10° N
USA 229 DEB 4.0 16:52:05 10° NW 16:59:04 52° NE 17:04:59 16° ESE
USA 229 4.0 16:52:12 10° NW 16:59:09 52° NE 17:05:00 16° ESE
Cosmos 1655 Rocket 4.3 16:55:57 10° SSE 17:01:47 42° E 17:07:37 10° NNE
Meteor 2-4 Rocket 4.4 16:57:39 10° SSE 17:02:47 33° E 17:05:02 25° NE
CSL-04 Rocket 3.8 16:58:45 10° SE 17:03:45 46° ENE 17:08:50 10° N
Cosmos 405 Rocket 3.9 17:00:51 10° N 17:09:24 - SSE 17:02:41 24° NNE
NOSS 3-1 (A) 4.3 16:57:35 10° NW 17:04:23 44° NE 17:08:59 23° E
Cosmos 407 Rocket 3.4 16:59:15 10° SSW 17:04:28 86° ESE 17:08:45 16° NNE
STARLINK-80 4.2 17:03:53 10° SSW 17:07:20 34° SE 17:07:55 32° ESE
COSMO-SKYMED 1 2.7 17:05:20 25° NE 17:07:35 51° E 17:11:49 10° S
Cosmos 1300 Rocket 3.8 17:03:44 10° N 17:07:50 40° ENE 17:11:54 10° SE
YAOGAN 1 2.7 17:08:07 10° SE 17:12:18 50° ENE 17:16:30 10° N
CZ-4 R/B 1.2 17:09:38 10° SSE 17:13:26 62° ENE 17:17:15 10° N
Okean-O 3.0 17:09:20 10° S 17:13:43 64° WSW 17:18:09 10° NNW
Meteor 1-19 Rocket 4.1 17:09:28 10° S 17:14:50 59° E 17:18:57 17° NNE
FALCON 9 DEB 3.6 17:16:14 10° W 17:19:38 48° NNW 17:19:57 46° N
CSL-04 Debris 4.0 17:20:06 10° SSE 17:25:30 70° ENE 17:30:55 10° N
Cosmos 1975 2.9 17:23:55 10° NNW 17:27:56 75° W 17:31:56 10° S
SeaSat 1 4.3 17:29:56 16° NNE 17:29:56 16° NNE 17:31:36 10° N
Okean 3 3.3 17:25:44 10° S 17:29:51 63° E 17:29:51 63° E
Cosmos 2263 4.2 17:24:43 10° NNW 17:30:28 59° ENE 17:33:02 33° ESE
S3M 3.8 17:25:17 10° N 17:31:32 78° E 17:37:39 10° SSE
SKYMED 3 4.5 17:29:41 32° NNE 17:31:43 89° ESE 17:36:03 10° SSW
Lacrosse 4 Rocket 3.7 17:30:28 10° N 17:31:11 13° N 17:31:11 13° N
Meteor 1-12 Rocket 4.1 17:30:16 10° N 17:36:09 71° ENE 17:41:52 10° SSE
Cosmos 2266 Rocket 4.1 17:31:05 10° SSE 17:37:16 53° E 17:40:17 30° NNE
Cosmos 1515 4.2 17:34:26 10° S 17:37:11 47° S 17:37:11 47° S
Ariane Rocket 4.3 17:40:51 26° NNE 17:40:51 26° NNE 17:43:13 10° N
Lacrosse 5 2.5 17:34:27 10° SSW 17:38:59 40° SE 17:38:59 40° SE
YAOGAN 6 3.7 17:37:56 10° S 17:41:21 44° W 17:44:51 10° NNW
ATLAS 2AS CENTAUR R/B 4.3 17:35:32 10° WNW 17:42:05 26° N 17:45:10 21° NNE
Cosmos 1553 Rocket 4.3 17:35:48 10° NNW 17:42:10 71° W 17:48:31 10° S
Cosmos 2151 Rocket 3.4 17:38:21 10° N 17:42:47 84° E 17:47:11 10° S
Uosat 12 SS-18 rocket 4.5 17:39:48 10° NW 17:44:32 63° SW 17:46:22 33° SSE
Cosmos 1763 Rocket 4.1 17:43:04 10° NNW 17:46:31 38° NNE 17:46:31 38° NNE
STARLINK-48 4.5 17:44:49 10° SW 17:47:34 39° SSW 17:47:34 39° SSW
CZ-4C R/B 2.5 17:45:20 10° SSW 17:49:23 43° SE 17:49:23 43° SE
NOAA 11 4.1 17:47:01 10° SSE 17:52:29 88° ENE 17:58:01 10° NNW
SKYMED 2 4.2 17:53:59 32° NNW 17:55:42 53° WNW 17:59:56 10° SSW
USA 215 3.6 17:54:38 39° NE 17:56:54 57° NNW 18:03:16 10° W
Cosmos 1943 3.4 17:52:02 10° S 17:56:42 51° SE 17:56:42 51° SE
ATLAS 5 CENTAUR R/B 4.3 17:58:07 10° WNW 17:58:07 10° WNW 17:58:07 10° WNW
Meteor 1-13 Rocket 4.2 17:55:33 10° S 18:00:22 62° SE 18:00:22 62° SE
IRS-1A Rocket 4.4 18:01:58 59° NE 18:01:58 59° NE 18:07:07 10° N
Cosmos 676 Rocket 4.4 17:59:44 10° SW 18:04:49 58° WNW 18:06:19 42° N
Cosmos 1656 Rocket 4.0 18:01:50 10° NNW 18:06:00 50° N 18:06:00 50° N
Cosmos 2369 Rocket 2.7 18:02:57 10° NW 18:08:29 58° WSW 18:13:17 14° S
BREEZE-M R/B 4.4 18:05:26 10° WNW 18:08:07 30° W 18:08:07 30° W
SL-16 R/B 3.7 18:12:01 10° WSW 18:17:03 31° NW 18:19:41 22° N
Cosmos 2315 Rocket 3.8 18:12:04 10° N 18:18:26 85° E 18:18:41 82° SE
Lacrosse 5 rocket 3.8 18:19:18 10° NW 18:20:34 16° NW 18:20:34 16° NW
Cosmos 1603 3.8 18:18:11 10° SSW 18:23:46 74° WNW 18:23:46 74° WNW
SL-4 R/B 4.1 18:23:24 10° WNW 18:25:08 25° WNW 18:25:08 25° WNW
Cosmos 1943 Rocket 3.7 18:25:30 10° NW 18:30:29 33° WSW 18:35:25 10° SSW
NOSS 3-1 (C) 4.4 18:31:59 10° NW 18:39:24 62° WSW 18:43:01 36° S
CZ-4 R/B 4.5 18:47:14 10° WSW 18:48:53 12° W 18:50:34 10° WNW
NOSS 3-1 (A) 4.2 18:48:25 10° NW 18:55:53 70° SW 18:56:30 67° SSW
Lacrosse 5 4.4 19:17:03 10° WSW 19:18:13 17° WSW 19:18:13 17° WSW
ATLAS 2AS CENTAUR R/B 4.5 19:28:35 10° NW 19:32:37 25° NNW 19:32:37 25° NNW
